• In Hungary
  • List of Countries
  • For 7 days
  • Water Temperature
  • Satellite Maps
  • Weather Map
  • News
  • Weather Widgets
  • user-avatar
    Login

    Hourly Weather Brodygino

    Today, 22 June, Friday

    Time Temperature Precipitation Wind Pressure Humidity
    00:00 +15°C° 0 mm 2 mps 743 mmHg 95%
    01:00 +15°C° 0 mm 2 mps 743 mmHg 95%
    02:00 +14°C° 0 mm 3 mps 743 mmHg 94%
    03:00 +16°C° 0 mm 3 mps 742 mmHg 89%
    04:00 +17°C° 0 mm 4 mps 742 mmHg 84%
    05:00 +18°C° 0 mm 4 mps 742 mmHg 79%
    06:00 +20°C° 0 mm 5 mps 741 mmHg 73%
    07:00 +22°C° 0 mm 5 mps 741 mmHg 66%
    08:00 +24°C° 0 mm 6 mps 741 mmHg 59%
    09:00 +26°C° 0.2 mm 6 mps 740 mmHg 61%
    10:00 +26°C° 0.2 mm 6 mps 740 mmHg 62%
    11:00 +27°C° 0.2 mm 6 mps 740 mmHg 63%
    12:00 +26°C° 0.8 mm 5 mps 740 mmHg 72%
    13:00 +25°C° 0.8 mm 5 mps 740 mmHg 80%
    14:00 +22°C° 0.8 mm 4 mps 740 mmHg 88%
    15:00 +22°C° 0.5 mm 4 mps 740 mmHg 87%
    16:00 +22°C° 0.5 mm 3 mps 740 mmHg 86%
    17:00 +21°C° 0.5 mm 3 mps 741 mmHg 85%
    18:00 +20°C° 0.1 mm 3 mps 741 mmHg 86%
    19:00 +19°C° 0.1 mm 2 mps 741 mmHg 87%
    20:00 +18°C° 0.1 mm 2 mps 741 mmHg 89%
    21:00 +17°C° 0 mm 2 mps 742 mmHg 88%
    22:00 +16°C° 0 mm 2 mps 742 mmHg 87%
    23:00 +15°C° 0 mm 2 mps 743 mmHg 87%

    Tomorrow, 23 June, Saturday

    Time Temperature Precipitation Wind Pressure Humidity
    00:00 +13°C° 0 mm 2 mps 743 mmHg 87%
    01:00 +12°C° 0 mm 2 mps 744 mmHg 87%
    02:00 +10°C° 0 mm 2 mps 744 mmHg 87%
    03:00 +12°C° 0 mm 1 mps 745 mmHg 85%
    04:00 +12°C° 0 mm 1 mps 745 mmHg 84%
    05:00 +13°C° 0 mm 1 mps 745 mmHg 82%
    06:00 +15°C° 0 mm 1 mps 746 mmHg 72%
    07:00 +18°C° 0 mm 1 mps 746 mmHg 63%
    08:00 +20°C° 0 mm 1 mps 746 mmHg 53%
    09:00 +21°C° 0 mm 1 mps 746 mmHg 50%
    10:00 +21°C° 0 mm 1 mps 746 mmHg 47%
    11:00 +22°C° 0 mm 1 mps 746 mmHg 45%
    12:00 +21°C° 0 mm 1 mps 746 mmHg 50%
    13:00 +20°C° 0 mm 1 mps 746 mmHg 56%
    14:00 +19°C° 0 mm 1 mps 746 mmHg 62%
    15:00 +19°C° 0 mm 1 mps 745 mmHg 65%
    16:00 +18°C° 0 mm 1 mps 745 mmHg 68%
    17:00 +18°C° 0 mm 1 mps 745 mmHg 72%
    18:00 +16°C° 0.2 mm 2 mps 745 mmHg 77%
    19:00 +15°C° 0.2 mm 2 mps 745 mmHg 82%
    20:00 +14°C° 0.2 mm 2 mps 744 mmHg 87%
    21:00 +14°C° 0.1 mm 2 mps 744 mmHg 88%
    22:00 +14°C° 0.1 mm 2 mps 744 mmHg 89%
    23:00 +13°C° 0.1 mm 2 mps 744 mmHg 90%

    Day after tomorrow, 24 June, Sunday

    Time Temperature Precipitation Wind Pressure Humidity
    00:00 +13°C° 0.5 mm 2 mps 743 mmHg 92%
    01:00 +12°C° 0.5 mm 3 mps 743 mmHg 94%
    02:00 +12°C° 0.5 mm 3 mps 743 mmHg 95%
    03:00 +12°C° 1.6 mm 3 mps 742 mmHg 96%
    04:00 +13°C° 1.6 mm 3 mps 742 mmHg 97%
    05:00 +14°C° 1.6 mm 3 mps 741 mmHg 97%
    06:00 +16°C° 0.4 mm 3 mps 741 mmHg 95%
    07:00 +18°C° 0.4 mm 3 mps 740 mmHg 93%
    08:00 +20°C° 0.4 mm 4 mps 740 mmHg 91%
    09:00 +21°C° 0.3 mm 4 mps 739 mmHg 86%
    10:00 +23°C° 0.3 mm 4 mps 739 mmHg 80%
    11:00 +25°C° 0.3 mm 5 mps 739 mmHg 75%
    12:00 +23°C° 0.7 mm 5 mps 739 mmHg 80%
    13:00 +21°C° 0.7 mm 5 mps 739 mmHg 86%
    14:00 +20°C° 0.7 mm 5 mps 739 mmHg 92%
    15:00 +20°C° 0.3 mm 5 mps 740 mmHg 89%
    16:00 +20°C° 0.3 mm 5 mps 740 mmHg 86%
    17:00 +20°C° 0.3 mm 6 mps 741 mmHg 83%
    18:00 +17°C° 0 mm 5 mps 741 mmHg 79%
    19:00 +16°C° 0 mm 5 mps 742 mmHg 76%
    20:00 +14°C° 0 mm 5 mps 743 mmHg 72%
    21:00 +13°C° 0 mm 4 mps 744 mmHg 76%
    22:00 +12°C° 0 mm 4 mps 744 mmHg 80%
    23:00 +11°C° 0 mm 3 mps 745 mmHg 83%

    25 June, Monday

    Time Temperature Precipitation Wind Pressure Humidity
    00:00 +10°C° 0 mm 3 mps 746 mmHg 85%
    01:00 +10°C° 0 mm 3 mps 746 mmHg 87%
    02:00 +9°C° 0 mm 3 mps 747 mmHg 90%
    03:00 +9°C° 0 mm 3 mps 747 mmHg 87%
    04:00 +10°C° 0 mm 3 mps 748 mmHg 85%
    05:00 +10°C° 0 mm 3 mps 748 mmHg 83%
    06:00 +12°C° 0 mm 3 mps 748 mmHg 75%
    07:00 +14°C° 0 mm 3 mps 748 mmHg 68%
    08:00 +16°C° 0 mm 3 mps 748 mmHg 60%
    09:00 +18°C° 0 mm 3 mps 748 mmHg 56%
    10:00 +19°C° 0 mm 3 mps 748 mmHg 51%
    11:00 +21°C° 0 mm 3 mps 748 mmHg 47%
    12:00 +22°C° 0 mm 3 mps 748 mmHg 46%
    13:00 +22°C° 0 mm 3 mps 748 mmHg 45%
    14:00 +24°C° 0 mm 3 mps 748 mmHg 44%
    15:00 +23°C° 0.1 mm 2 mps 748 mmHg 50%
    16:00 +21°C° 0.1 mm 2 mps 748 mmHg 57%
    17:00 +22°C° 0.1 mm 1 mps 748 mmHg 63%
    18:00 +20°C° 0.1 mm 1 mps 749 mmHg 69%
    19:00 +19°C° 0.1 mm 1 mps 749 mmHg 75%
    20:00 +16°C° 0.1 mm 1 mps 749 mmHg 81%
    21:00 +15°C° 0 mm 1 mps 749 mmHg 85%
    22:00 +14°C° 0 mm 1 mps 749 mmHg 88%
    23:00 +13°C° 0 mm 1 mps 749 mmHg 92%

    26 June, Tuesday

    Time Temperature Precipitation Wind Pressure Humidity
    00:00 +13°C° 0 mm 1 mps 749 mmHg 93%
    01:00 +12°C° 0 mm 1 mps 750 mmHg 94%
    02:00 +12°C° 0 mm 1 mps 750 mmHg 95%
    03:00 +12°C° 0 mm 1 mps 750 mmHg 93%
    04:00 +13°C° 0 mm 1 mps 750 mmHg 91%
    05:00 +14°C° 0 mm 1 mps 750 mmHg 89%
    06:00 +16°C° 0.1 mm 1 mps 750 mmHg 82%
    07:00 +18°C° 0.1 mm 2 mps 750 mmHg 75%
    08:00 +20°C° 0.1 mm 2 mps 750 mmHg 68%
    09:00 +20°C° 0.4 mm 2 mps 750 mmHg 66%
    10:00 +21°C° 0.4 mm 2 mps 750 mmHg 64%
    11:00 +22°C° 0.4 mm 3 mps 750 mmHg 61%
    12:00 +22°C° 0.6 mm 3 mps 750 mmHg 61%
    13:00 +23°C° 0.6 mm 2 mps 750 mmHg 60%
    14:00 +23°C° 0.6 mm 2 mps 750 mmHg 60%
    15:00 +23°C° 0.3 mm 2 mps 750 mmHg 61%
    16:00 +23°C° 0.3 mm 2 mps 750 mmHg 63%
    17:00 +21°C° 0.3 mm 2 mps 750 mmHg 64%
    18:00 +20°C° 0.5 mm 2 mps 750 mmHg 73%
    19:00 +19°C° 0.5 mm 1 mps 750 mmHg 81%
    20:00 +16°C° 0.5 mm 1 mps 750 mmHg 90%
    21:00 +15°C° 0 mm 1 mps 750 mmHg 91%
    22:00 +14°C° 0 mm 1 mps 750 mmHg 93%
    23:00 +13°C° 0 mm 1 mps 750 mmHg 94%

    27 June, Wednesday

    Time Temperature Precipitation Wind Pressure Humidity
    00:00 +13°C° 0 mm 1 mps 750 mmHg 94%
    01:00 +12°C° 0 mm 0 mps 750 mmHg 95%
    02:00 +11°C° 0 mm 0 mps 750 mmHg 95%
    03:00 +12°C° 0 mm 0 mps 750 mmHg 94%
    04:00 +13°C° 0 mm 0 mps 751 mmHg 93%
    05:00 +14°C° 0 mm 0 mps 751 mmHg 92%
    06:00 +16°C° 0 mm 1 mps 751 mmHg 85%
    07:00 +19°C° 0 mm 1 mps 751 mmHg 78%
    08:00 +21°C° 0 mm 1 mps 751 mmHg 71%
    09:00 +22°C° 0 mm 1 mps 751 mmHg 63%
    10:00 +24°C° 0 mm 1 mps 751 mmHg 54%
    11:00 +25°C° 0 mm 1 mps 751 mmHg 46%
    12:00 +26°C° 0 mm 1 mps 751 mmHg 44%
    13:00 +27°C° 0 mm 1 mps 751 mmHg 42%
    14:00 +26°C° 0 mm 0 mps 751 mmHg 40%
    15:00 +25°C° 0 mm 0 mps 751 mmHg 45%
    16:00 +23°C° 0 mm 0 mps 751 mmHg 50%
    17:00 +22°C° 0 mm 0 mps 751 mmHg 55%
    18:00 +21°C° 0 mm 0 mps 751 mmHg 60%
    19:00 +21°C° 0 mm 1 mps 751 mmHg 64%
    20:00 +20°C° 0 mm 1 mps 751 mmHg 69%
    21:00 +19°C° 0.1 mm 1 mps 751 mmHg 73%
    22:00 +18°C° 0.1 mm 1 mps 751 mmHg 77%
    23:00 +15°C° 0.1 mm 1 mps 751 mmHg 81%
    Show more